Weather in Pionerskiy

Russia / Sverdlovsk Oblast     57°06′17″N   63°45′01″E
temp.,
°C
wind,
m/s
gust,
m/s
humid.,
%
clouds,
%
prec.,
mm/h
press.,
hPa
HPBL,
m
6 may, thu
thu623:00+15wnw71159100 0.0 996910
02:00+9w6127984 0.3 9991149
05:00+9w61169100 0.4 1001997
08:00+9w712605 0.0 10041279
11:00+10w8114951 0.1 10061813
14:00+12wnw8123696 0.0 10082229
17:00+11wnw7103662 0.0 10112000
20:00+9wnw610435 0.0 10131298
7 may, fri
fri723:00+6w38540 0.0 1015210
02:00+4w39640 0.0 1017176
05:00+3w38720 0.0 1019161
08:00+9w46515 0.0 1020466
11:00+14w463796 0.0 10201168
14:00+18wsw56336 0.0 10201547
17:00+19wsw45315 0.0 10191758
20:00+15ssw23455 0.0 101935
8 may, sat
sat823:00+12ssw35535 0.0 102076
02:00+10sw225966 0.0 102038
05:00+11sw225399 0.0 102032
08:00+15ssw124697 0.0 1020174
11:00+19s1136100 0.0 1020630
14:00+21sse2130100 0.0 10192157
17:00+21se122735 0.0 10182494
20:00+17ne1145100 0.0 101824
9 may, sun
sun923:00+14n2654100 0.0 1019129
02:00+13nne2457100 0.0 101973
05:00+11ne2568100 0.4 101999
08:00+15ene4756100 0.3 1020326
11:00+20ene5640100 0.3 10191286
14:00+22ene563391 0.0 10192757
17:00+20ene463699 0.0 10192140
20:00+14w247053 0.5 102098
10 may, mon
mon1023:00+12n33715 0.8 102151
02:00+11ne227458 0.0 102144
05:00+10ne23795 0.0 102244
08:00+16ne24555 0.0 1022327
11:00+21ene223524 0.0 10222015
14:00+24ne11275 0.0 10212629
17:00+24w21265 0.0 10202760
20:00+19wsw22414 0.0 102044